Calgary Springbank,

9:21 AM MDT on May 23, 2017 (GMT -0600)
Calgary Springbank

Weather History for CYBW - September, 2013

Change the Weather History Date:

Sunday, September 1, 2013

  Actual Average Record
Temperature  
Mean Temperature 55 °F -  
Max Temperature 78 °F 59 °F 78 °F (2013)
Min Temperature 32 °F 35 °F 30 °F (2006)
Degree Days  
Heating Degree Days 10    
Growing Degree Days 5 (Base 50)    
Moisture  
Dew Point 43 °F    
Average Humidity 58    
Maximum Humidity 100    
Minimum Humidity 28    
Precipitation  
Precipitation 0.00 in - - ()
Sea Level Pressure  
Sea Level Pressure 30.00 in    
Wind  
Wind Speed 6 mph ()    
Max Wind Speed 14 mph    
Max Gust Speed -    
Visibility 15.0 miles    
Events      
Averages and records for this station are not official NWS values.
T = Trace of Precipitation, MM = Missing Value Source: Averaged Metar Reports

Daily Weather History Graph

Daily Weather History Graph

Search for Another Location

Airport or City:

Trip Planner

Search our weather history database for the weather conditions in past years. The results will help you decide how hot, cold, wet, or windy it might be!

Date:

Astronomy

Sep. 01, 2013 Rise Set
Actual Time 6:51 AM MDT 8:22 PM MDT
Civil Twilight 6:16 AM MDT 8:56 PM MDT
Nautical Twilight 5:34 AM MDT 9:38 PM MDT
Astronomical Twilight 4:47 AM MDT 10:24 PM MDT
Moon 3:01 AM MDT (9/1) 6:14 PM MDT (9/1)
Length of Visible Light 14h 39m
Length of Day
13h 30m
Waning Crescent, 13% of the Moon is Illuminated
Sep 1
Waning Crescent
Sep 5
New
Sep 12
First Quarter
Sep 19
Full
Sep 26
Last Quarter

Hourly Weather History & Observations

Time (MDT) Temp. Windchill Dew Point Humidity Pressure Visibility Wind Dir Wind Speed Gust Speed Precip Events Conditions
5:00 AM 35.6 °F 30.7 °F 35.6 °F 100% 30.08 in 15.0 mi NW 5.8 mph - N/A   Clear
6:00 AM 34 °F - 33 °F 95% 30.08 in 15 mi NNW 3.5 mph - -  
6:00 AM 33.8 °F 29.6 °F 33.8 °F 100% 30.08 in 15.0 mi NNW 4.6 mph - N/A   Clear
7:00 AM 35.6 °F 29.9 °F 35.6 °F 100% 30.09 in 30.0 mi NW 6.9 mph - N/A   Clear
8:00 AM 39.2 °F 35.0 °F 37.4 °F 93% 30.09 in 40.0 mi NW 5.8 mph - N/A   Clear
9:00 AM 50.0 °F - 44.6 °F 82% 30.08 in 40.0 mi NNW 8.1 mph - N/A   Clear
10:00 AM 59.0 °F - 46.4 °F 63% 30.06 in 40.0 mi NW 9.2 mph - N/A   Clear
11:00 AM 64.4 °F - 48.2 °F 56% 30.03 in 40.0 mi NW 5.8 mph - N/A   Clear
12:00 PM 72 °F - 46 °F 28% 29.99 in 37 mi SE 4.6 mph - -  
12:00 PM 71.6 °F - 46.4 °F 41% 29.99 in 40.0 mi SE 4.6 mph - N/A   Clear
1:00 PM 73.4 °F - 42.8 °F 33% 29.99 in 40.0 mi ESE 5.8 mph - N/A   Clear
2:00 PM 75.2 °F - 44.6 °F 34% 29.98 in 40.0 mi ESE 6.9 mph - N/A   Clear
3:00 PM 77.0 °F - 44.6 °F 32% 29.96 in 40.0 mi ESE 10.4 mph - N/A   Clear
4:00 PM 78.8 °F - 44.6 °F 30% 29.94 in 40.0 mi SSE 11.5 mph - N/A   Clear
5:00 PM 78.8 °F - 48.2 °F 34% 29.94 in 40.0 mi SSE 13.8 mph - N/A   Clear
6:00 PM 78.8 °F - 46.4 °F 32% 29.94 in 40.0 mi SSE 9.2 mph - N/A   Clear
7:00 PM 77.0 °F - 46.4 °F 34% 29.93 in 40.0 mi South 9.2 mph - N/A   Partly Cloudy
8:00 PM 66.2 °F - 48.2 °F 52% 29.95 in 40.0 mi South 8.1 mph - N/A   Clear
9:00 PM 59.0 °F - 46.4 °F 63% 29.95 in 40.0 mi Variable 2.3 mph - N/A   Clear
10:00 PM 59.0 °F - 44.6 °F 59% 29.94 in 40.0 mi WSW 4.6 mph - N/A   Clear